This is the latest recevied weather packets stored in our database for station/object N2PPN. If no packets are shown the sender has not sent any weather packets the latest 10 day(s).
| Time | Temp. | Humidity | Pressure | Rain* | Wind** | Luminosity | Snow |
|---|---|---|---|---|---|---|---|
| 1777936963 | 13.89° C | 77% | 1013.2 hPa | 0 mm | - | 21 W/m² | - |
| 1777936660 | 13.89° C | 76% | 1013.2 hPa | 0 mm | - | 24 W/m² | - |
| 1777936356 | 13.89° C | 76% | 1013.3 hPa | 0 mm | - | 27 W/m² | - |
| 1777936052 | 14.44° C | 76% | 1013.4 hPa | 0 mm | - | 30 W/m² | - |
| 1777935751 | 13.89° C | 77% | 1013.3 hPa | 0 mm | - | 34 W/m² | - |
| 1777935450 | 13.89° C | 77% | 1013 hPa | 0 mm | - | 45 W/m² | - |
| 1777935145 | 13.89° C | 77% | 1013.1 hPa | 0 mm | - | 46 W/m² | - |
| 1777934843 | 14.44° C | 76% | 1013.2 hPa | 0 mm | - | 69 W/m² | - |
| 1777934540 | 14.44° C | 74% | 1013.1 hPa | 0 mm | - | 79 W/m² | - |
| 1777934236 | 14.44° C | 75% | 1013.2 hPa | 0 mm | - | 90 W/m² | - |
| 1777933932 | 14.44° C | 76% | 1013.2 hPa | 0 mm | - | 101 W/m² | - |
| 1777933629 | 14.44° C | 76% | 1013.5 hPa | 0 mm | - | 114 W/m² | - |
| 1777933326 | 14.44° C | 75% | 1013.6 hPa | 0 mm | - | 127 W/m² | - |
| 1777933023 | 15° C | 73% | 1013.5 hPa | 0 mm | - | 136 W/m² | - |
| 1777932720 | 15° C | 72% | 1013.5 hPa | 0 mm | - | 149 W/m² | - |
| 1777932416 | 15° C | 72% | 1013.8 hPa | 0 mm | - | 162 W/m² | - |
| 1777932114 | 15° C | 72% | 1013.5 hPa | 0 mm | - | 178 W/m² | - |
| 1777931810 | 15° C | 71% | 1013.6 hPa | 0 mm | - | 189 W/m² | - |
| 1777931508 | 15.56° C | 70% | 1013.7 hPa | 0 mm | - | 203 W/m² | - |
| 1777931203 | 15.56° C | 67% | 1013.7 hPa | 0 mm | - | 215 W/m² | - |
| 1777930900 | 15.56° C | 67% | 1013.7 hPa | 0 mm | - | 229 W/m² | - |
| 1777930597 | 16.11° C | 66% | 1013.6 hPa | 0 mm | - | 247 W/m² | - |
| 1777930293 | 16.11° C | 66% | 1013.6 hPa | 0 mm | - | 261 W/m² | - |
| 1777929990 | 16.11° C | 66% | 1013.7 hPa | 0 mm | - | 272 W/m² | - |
| 1777929687 | 15.56° C | 67% | 1013.7 hPa | 0 mm | - | 288 W/m² | - |
* Rain latest hour (hover to see other rain measurements)
** Current wind speed in m/s (hover to see current wind gust speed)